Location: Bois de la Silve
(44.4667°N, 6.7833°E)
Time: 02:39:33
(UTC+00:00)

SL-8 R/B - Pass Details

Date: 23 October 2020
Orbit: 657 x 667 km, 48.4° (Epoch: 30 November)

Event Time Altitude Azimuth Distance (km) Brightness Sun altitude
Rises 17:20:58 0° 281° (W) 3,001 8.7 -8.9°
Reaches altitude 10° 17:24:53 10° 250° (WSW) 2,080 7.7 -9.6°
Maximum altitude 17:26:32 12° 229° (SW) 1,964 7.0 -9.9°
Drops below altitude 10° 17:28:12 10° 209° (SSW) 2,073 6.8 -10.2°
Sets 17:32:06 0° 177° (S) 2,977 7.1 -10.8°
